SCP
1 1 1 1 1 1 1 1 0 1 1 0 0 1 1 1 1 1 1 1 1 1 1 1 1 1 1 1 1 1 1 1 1 1 1 1 1 1 1 1 1 1 1
1 1 1 1 1 1 1 1 1 1 1 0 1 1 1 1 1 1 1 1 1 1 1 1 1 1 1 1 1 1 1 1 1 1 1 1 1 1 1 1 1 1 1
1 1 1 1 2 2 2 1 1 1 1 1 1 1 1 1 1 1 1 1 1 1 1 1 1 1 1 1 1 1 1 1 1 1 1 1 1 1 1 1 1 1 1
1 1 1 1 2 2 2 1 1 1 1 1 0 0 0 1 1 1 1 1 1 1 1 1 1 1 1 1 1 1 1 1 1 1 0 0 0 1 1 1 1 1 1
1 1 1 1 2 2 2 2 1 1 1 1 0 0 0 0 0 0 0 0 0 1 1 1 1 1 1 1 1 1 1 1 1 1 0 0 0 1 1 1 1 1 1
1 1 1 1 1 2 2 2 1 1 1 1 0 0 0 0 0 0 0 0 0 0 1 1 1 1 1 1 1 1 1 1 1 1 0 0 0 1 1 1 1 1 1
1 1 1 1 1 1 1 2 1 1 1 1 1 1 0 0 0 0 0 0 0 0 0 0 1 1 1 1 1 1 1 1 1 1 1 0 0 1 1 1 1 1 1
1 1 1 1 1 1 1 1 1 1 1 1 1 1 1 1 1 1 0 0 0 0 0 0 0 1 1 1 1 1 1 1 0 0 0 0 0 1 1 1 2 2 2
1 1 1 1 1 1 1 1 1 1 1 1 1 1 1 1 1 0 0 0 0 0 0 0 0 0 0 1 1 1 1 0 0 0 0 0 0 1 1 1 1 2 2
2 2 1 1 1 1 1 1 1 1 1 1 1 1 1 1 0 0 0 0 0 0 0 0 0 0 0 0 1 1 1 0 0 0 0 0 0 0 1 1 1 1 2
2 2 1 1 1 1 1 1 0 0 0 1 1 0 0 0 0 0 0 0 0 0 0 0 0 0 0 0 0 0 0 0 0 0 0 0 0 0 0 1 1 1 1
1 2 2 1 1 1 1 1 0 0 0 1 1 0 0 0 0 0 0 0 0 0 0 0 0 0 0 0 0 0 0 0 0 0 0 0 0 0 1 1 1 1 1
1 2 2 2 1 1 1 1 1 1 1 1 1 1 0 0 0 0 0 0 0 0 0 0 0 0 0 0 0 0 0 0 0 0 0 1 1 1 1 1 1 1 1
2 2 2 2 2 1 1 1 1 1 1 1 1 1 1 0 0 0 0 0 0 0 0 0 0 0 0 0 0 0 0 0 0 0 0 1 1 1 1 1 1 0 1
2 2 2 2 2 1 1 1 1 1 1 1 1 1 1 1 0 0 0 0 0 0 0 0 0 0 0 0 0 0 0 0 0 0 1 1 1 1 1 1 1 0 0
2 2 2 2 2 1 1 0 0 1 1 1 1 1 1 1 0 0 0 0 0 0 0 0 0 0 0 0 0 0 0 0 0 0 0 1 1 1 1 1 1 1 1
2 2 2 2 2 1 1 0 0 0 1 1 1 1 1 1 0 0 0 0 0 0 0 0 0 0 0 0 0 0 0 0 0 0 0 1 1 1 1 1 1 1 1
2 2 2 2 1 1 1 0 0 0 1 1 1 1 1 1 0 0 0 0 0 0 0 0 0 0 0 0 0 0 0 0 0 0 0 0 1 1 0 1 1 1 1
2 2 1 1 1 1 0 0 0 0 0 1 1 1 1 1 0 0 0 0 0 0 0 0 0 0 0 0 0 0 0 0 0 0 0 0 0 1 0 0 1 1 1
1 1 1 1 1 1 0 0 0 0 0 1 1 1 0 0 0 0 0 0 0 0 0 0 0 0 0 0 0 0 0 0 0 0 0 0 0 0 0 0 0 0 0
1 1 1 1 1 1 0 0 0 0 0 0 1 1 0 0 0 0 0 0 0 0 0 0 0 0 0 0 0 0 0 0 0 0 0 0 0 0 0 0 0 0 0
1 1 1 1 1 1 1 0 0 0 0 0 1 1 1 0 0 0 0 0 0 0 0 0 0 0 0 0 0 0 0 0 0 0 0 0 0 0 0 0 0 0 0
0 1 1 1 1 1 1 0 0 0 0 0 0 1 1 0 0 0 0 0 0 0 0 0 0 0 0 0 0 0 0 0 0 0 0 0 0 0 0 0 0 0 0
0 1 1 1 1 1 1 0 0 0 0 0 0 0 1 0 0 0 0 0 0 0 0 0 0 0 0 0 0 0 0 0 0 0 0 0 0 0 0 0 0 0 0
0 0 0 1 1 1 1 1 0 0 0 0 0 0 0 0 0 0 0 0 0 0 0 0 0 0 0 0 0 0 0 0 0 0 0 0 0 0 0 0 0 0 0
0 0 0 0 1 1 1 1 0 0 0 1 1 1 1 1 0 0 0 0 0 0 0 0 0 0 0 0 0 0 0 0 0 0 0 0 0 0 0 0 0 0 0
Wind_Speed
5 7 7 6 7 8 8 7 7 7 7 7 8 7 7 7 7 7 7 7 8 8 9 9 9 9 9 10 10 10 10 10 10 10 10 10 9 9 10 9 9 6 10
6 8 7 7 8 8 8 7 7 7 7 7 7 7 7 7 7 7 7 7 7 8 8 8 9 9 9 9 9 10 9 9 8 7 7 8 8 9 9 9 9 6 9
7 8 6 7 8 8 8 7 7 7 7 7 7 7 7 7 7 7 7 7 7 7 8 8 9 9 9 9 9 9 8 7 6 5 5 3 5 8 8 8 8 8 9
7 7 6 7 8 8 8 7 7 7 6 6 7 6 6 7 7 7 7 7 7 7 8 8 8 8 7 8 7 7 6 6 5 5 3 3 4 7 7 7 7 8 8
7 7 7 8 8 8 7 7 7 6 6 6 6 6 6 6 6 7 7 7 7 7 7 7 7 7 7 7 6 6 5 5 6 4 3 4 3 6 7 7 7 7 7
7 7 7 8 8 7 7 7 7 7 6 6 6 6 6 6 6 6 7 7 7 7 7 6 6 6 6 6 6 6 5 6 5 3 4 4 3 5 6 6 6 7 7
6 6 7 8 7 7 7 7 6 7 7 7 7 6 6 6 6 6 6 7 7 7 6 6 6 5 5 5 5 5 6 6 3 3 4 4 4 6 5 6 6 6 6
6 6 6 7 7 7 7 7 7 7 6 6 6 6 6 6 6 6 6 6 6 6 6 6 5 5 5 5 5 5 6 6 4 3 3 3 5 5 5 5 5 5 5
6 6 5 5 5 6 6 7 6 6 6 5 6 6 6 6 6 6 6 5 5 5 5 5 5 5 4 5 5 5 5 6 4 2 3 3 4 4 5 5 4 5 5
5 5 4 4 4 4 4 5 5 5 5 5 6 6 5 5 5 5 5 5 5 4 4 4 4 4 4 4 4 4 4 5 2 2 2 2 4 4 4 4 4 4 4
4 4 4 3 3 2 3 3 4 4 5 5 4 4 4 2 2 2 4 5 4 4 4 4 4 4 4 3 3 3 3 2 2 2 2 3 3 3 3 3 3 3 3
3 3 3 3 2 2 2 2 2 2 2 2 2 2 1 1 2 3 4 4 4 4 3 3 4 3 2 1 2 3 2 2 2 2 2 3 2 1 2 2 2 2 2
3 3 2 2 2 2 1 1 1 1 1 1 2 2 2 2 2 2 1 2 2 2 2 2 2 1 1 1 1 1 2 2 1 2 2 3 2 1 1 1 1 1 2
3 3 2 2 2 2 2 1 1 1 1 1 1 2 2 1 1 1 1 1 1 1 1 1 1 2 2 2 2 2 2 2 1 1 2 3 2 1 1 1 1 1 2
2 3 2 2 2 2 2 1 1 1 1 1 1 2 2 1 1 1 1 1 1 1 1 1 1 1 2 2 2 2 2 2 2 2 1 2 2 2 1 2 2 2 2
2 2 2 2 2 2 2 1 1 0 1 1 2 2 2 1 1 1 1 1 1 1 1 1 1 1 1 1 2 2 1 2 2 1 1 1 1 2 2 2 3 3 3
2 2 2 2 2 2 2 1 1 1 1 1 1 2 2 2 1 1 1 1 1 1 1 1 1 1 1 1 2 2 1 1 2 2 1 0 0 1 2 3 4 4 4
2 2 1 2 2 2 1 1 1 1 1 1 1 1 2 2 2 1 1 1 1 1 1 1 1 1 1 1 1 2 1 1 2 2 1 1 0 0 1 2 4 5 5
2 2 2 2 2 2 1 1 1 1 1 1 1 1 1 1 2 2 1 1 1 1 1 1 2 1 1 1 2 2 2 1 2 2 2 1 1 0 0 1 3 4 5
2 2 2 2 2 2 2 1 1 1 1 1 1 1 2 1 1 1 1 1 1 1 1 2 2 2 1 1 2 2 2 2 2 1 1 1 1 1 1 1 1 2 4
3 2 2 1 1 1 1 1 1 1 0 1 1 2 2 1 1 1 1 1 1 1 1 1 1 1 2 2 2 3 3 2 2 1 1 1 1 1 1 1 1 1 2
2 2 2 1 1 1 1 1 1 1 1 1 1 2 2 2 1 1 1 1 1 1 1 1 1 1 1 1 1 2 2 3 2 2 2 2 1 1 1 2 1 1 1
2 2 2 2 1 1 0 1 1 1 1 1 1 0 1 1 1 1 1 1 1 0 0 1 1 1 1 1 1 0 1 2 3 2 2 1 1 2 2 2 2 2 2
2 2 2 2 1 1 1 1 2 1 1 1 0 0 0 0 0 1 1 1 1 1 1 1 1 1 1 1 1 1 1 1 2 3 2 2 2 2 2 2 2 2 2
2 2 1 1 1 1 1 1 1 1 0 0 0 0 0 0 1 1 1 1 1 1 1 1 1 1 1 1 1 2 2 2 2 2 4 3 3 3 2 3 2 2 2
2 2 2 1 1 1 1 0 1 1 1 1 0 0 0 1 1 1 1 1 1 1 1 1 1 1 1 2 2 1 1 1 2 2 4 4 4 4 3 2 2 2 2
Wind_Direction
109 119 122 110 104 101 95 89 91 88 85 84 83 79 74 73 71 69 69 67 66 64 62 61 61 60 59 58 57 59 61 60 59 59 58 58 59 60 58 56 54 52 56
113 122 121 105 102 100 94 88 87 88 85 84 82 79 75 74 71 68 66 66 66 65 62 60 60 61 60 59 59 58 58 58 54 52 56 59 58 59 57 53 55 59 56
109 121 121 101 102 99 94 89 85 88 86 84 82 79 77 74 70 66 64 62 62 63 62 61 60 60 59 60 58 55 52 48 40 37 45 59 65 62 58 57 59 57 57
109 117 117 100 100 98 95 90 87 89 88 84 81 78 75 72 68 65 62 58 55 57 60 58 58 58 56 57 55 51 44 32 15 16 44 54 58 63 61 62 59 54 54
106 113 109 101 99 98 94 89 85 85 84 82 79 77 72 68 66 66 62 57 53 53 56 59 59 56 53 52 49 44 32 11 358 11 47 48 53 62 63 64 60 55 53
102 107 108 102 101 98 93 90 86 82 80 78 75 73 71 66 61 64 61 56 52 50 51 55 59 58 56 52 43 34 20 1 350 24 49 49 46 56 62 65 63 57 54
97 105 115 100 95 93 91 88 84 81 78 76 71 66 66 63 61 65 62 57 53 49 48 51 58 56 56 52 44 30 12 353 2 39 52 53 50 53 60 61 63 56 52
96 105 117 103 93 88 86 85 79 73 74 74 69 67 66 64 63 64 59 55 52 48 47 49 49 48 47 46 41 30 9 353 2 35 57 59 54 52 56 54 54 56 53
94 102 111 115 108 95 84 80 77 73 70 69 65 65 67 66 64 58 52 50 50 50 46 44 45 42 38 39 37 25 1 349 347 22 59 64 57 53 56 52 49 50 49
87 95 103 110 114 116 107 88 79 71 65 63 62 61 63 67 63 55 52 41 43 44 40 38 34 36 36 32 29 14 350 334 345 30 57 73 60 53 56 52 50 49 48
83 91 100 103 108 112 121 109 96 82 69 68 67 58 59 72 76 65 54 45 40 37 33 34 30 32 27 23 13 350 335 327 20 39 58 74 65 52 54 51 46 42 41
108 98 96 100 94 89 99 116 119 102 93 76 73 62 34 44 54 58 66 54 45 34 30 28 31 32 20 13 350 329 322 345 21 47 58 70 70 58 53 45 33 36 30
122 103 89 94 99 91 79 103 91 92 99 83 76 62 31 42 56 62 68 57 46 28 26 21 20 9 359 12 359 329 333 357 17 50 60 57 44 35 26 18 352 8 7
122 120 110 98 95 102 95 88 93 86 82 68 59 61 56 46 36 38 46 45 47 16 8 15 355 355 360 2 352 342 352 351 13 50 68 64 46 3 331 317 302 304 316
129 133 129 118 108 100 99 77 65 88 91 88 73 50 47 52 41 33 18 33 31 21 10 357 359 2 1 347 341 358 353 354 7 23 58 66 54 7 326 327 316 306 303
132 137 137 137 126 116 106 92 68 97 91 89 85 64 43 46 44 36 25 20 17 22 2 1 354 350 342 339 335 343 337 354 353 348 54 51 35 7 336 316 305 306 314
136 127 136 137 127 121 113 106 88 76 80 78 79 74 55 45 51 53 37 12 357 6 9 3 2 354 347 347 333 321 327 338 334 330 330 318 213 306 324 326 321 315 311
122 120 117 108 119 124 111 109 96 100 90 90 82 75 61 41 41 54 46 17 358 7 7 352 352 350 333 329 325 318 311 306 294 299 294 277 237 221 286 313 322 317 308
113 115 117 117 124 128 121 106 97 89 78 74 80 71 60 47 40 46 37 12 15 18 360 351 348 332 326 326 313 308 298 284 276 279 275 269 278 312 267 292 304 310 308
103 106 113 109 120 116 115 107 90 79 75 77 72 67 62 50 45 55 39 15 16 28 5 353 339 332 326 327 325 316 297 282 277 266 280 288 297 317 323 309 283 298 304
109 110 120 119 116 123 129 138 145 174 171 99 81 66 63 46 34 55 30 15 360 7 357 348 346 333 334 347 344 318 294 266 261 262 276 277 279 297 297 293 293 308 300
131 132 134 138 145 149 178 175 165 159 144 109 83 70 54 38 26 38 45 23 346 352 3 354 2 339 315 353 337 315 311 303 280 275 272 266 280 315 290 278 293 303 306
148 148 145 152 149 163 177 134 103 94 80 65 33 28 27 35 19 21 30 36 348 5 305 307 303 299 296 303 330 240 270 277 310 271 243 262 299 313 309 300 293 302 298
155 147 150 152 134 136 133 121 131 153 179 217 225 256 27 72 357 11 25 21 6 349 340 333 344 313 287 286 303 291 267 283 290 302 292 263 275 279 282 295 291 288 292
142 145 153 139 125 126 144 161 167 176 199 96 82 103 74 57 25 14 17 5 359 340 336 335 331 326 311 289 289 301 302 299 277 268 287 298 288 262 262 266 263 274 284
121 128 125 119 112 113 143 191 177 175 158 117 91 75 2 16 5 359 355 338 313 303 297 294 287 285 288 293 293 294 289 281 279 270 276 289 289 280 267 254 249 267 271